Location: Ward Pound Ridge Reservation
(41.2500°N, 73.6000°W)
Time: 13:22:29
(UTC-04:00)

ISS - Pass Details

Date: 09 October 2017
Orbit: 400 x 408 km, 51.6° (Epoch: 24 October)

Event Time Altitude Azimuth Distance (km) Brightness Sun altitude
Rises 20:34:24 0° 308° (NW) 2,329 1.1 -25.4°
Reaches altitude 10° 20:36:32 10° 314° (NW) 1,468 -0.2 -25.8°
Enters shadow 20:37:47 21° 322° (NW) 986 -1.4 -26.1°
